TimeGMT,TemperatureF,Dew PointF,Humidity,Sea Level PressureIn,VisibilityMPH,Wind Direction,Wind SpeedMPH,Gust SpeedMPH,PrecipitationIn,Events,Conditions,WindDirDegrees,DateUTC
12:00 AM,53,49,83,28.98,9,SSW,24.6,,,Rain,Light Rain,200,2013-01-27 00:00:00
12:00 AM,53.6,50.0,88,28.97,6.2,SSW,25.3,-,N/A,Rain,Light Rain,200,2013-01-27 00:00:00
12:30 AM,50.0,46.4,87,28.97,6.2,WSW,32.2,48.3,N/A,Rain,Light Rain,250,2013-01-27 00:30:00
1:00 AM,50.0,46.4,87,28.97,6.2,SW,17.3,-,N/A,Rain,Light Rain,230,2013-01-27 01:00:00
1:30 AM,48.2,44.6,87,28.97,6.2,WSW,19.6,-,N/A,,Mostly Cloudy,240,2013-01-27 01:30:00
2:00 AM,48.2,44.6,87,28.97,3.7,WSW,21.9,-,N/A,Rain,Light Rain Showers,240,2013-01-27 02:00:00
2:30 AM,46.4,42.8,87,28.97,6.2,WSW,19.6,-,N/A,,Mostly Cloudy,240,2013-01-27 02:30:00
3:00 AM,46.4,44.6,93,29.00,6.2,SW,11.5,-,N/A,,Mostly Cloudy,230,2013-01-27 03:00:00
3:30 AM,46.4,42.8,87,29.00,6.2,SW,13.8,-,N/A,,Mostly Cloudy,230,2013-01-27 03:30:00
4:00 AM,46.4,41.0,81,29.00,6.2,SW,13.8,-,N/A,,Mostly Cloudy,220,2013-01-27 04:00:00
4:30 AM,46.4,39.2,76,29.00,6.2,SW,21.9,34.5,N/A,,Mostly Cloudy,230,2013-01-27 04:30:00
5:00 AM,44.6,39.2,81,29.00,6.2,WSW,25.3,-,N/A,Rain,Light Rain Showers,240,2013-01-27 05:00:00
5:30 AM,39.2,35.6,87,29.03,6.2,West,36.8,48.3,N/A,,Mostly Cloudy,260,2013-01-27 05:30:00
6:00 AM,39,34,77,29.07,16,WSW,22.4,,,Rain,Light Rain Showers,240,2013-01-27 06:00:00
6:00 AM,39.2,33.8,81,29.06,6.2,WSW,24.2,-,N/A,,Mostly Cloudy,240,2013-01-27 06:00:00
6:30 AM,39.2,35.6,87,29.06,6.2,WSW,27.6,41.4,N/A,Rain,Light Rain Showers,240,2013-01-27 06:30:00
7:00 AM,39.2,33.8,81,29.09,6.2,WSW,23.0,-,N/A,,Scattered Clouds,240,2013-01-27 07:00:00
7:30 AM,39.2,33.8,81,29.09,6.2,SW,18.4,-,N/A,,Partly Cloudy,230,2013-01-27 07:30:00
8:00 AM,39.2,33.8,81,29.09,6.2,SW,20.7,-,N/A,,Partly Cloudy,230,2013-01-27 08:00:00
8:30 AM,39.2,33.8,81,29.12,6.2,SW,18.4,-,N/A,Rain,Light Rain Showers,230,2013-01-27 08:30:00
9:00 AM,39.2,32.0,75,29.12,6.2,SW,23.0,-,N/A,,Partly Cloudy,220,2013-01-27 09:00:00
9:30 AM,39.2,33.8,81,29.15,5.6,SW,28.8,-,N/A,Rain,Light Rain Showers,230,2013-01-27 09:30:00
10:00 AM,39.2,33.8,81,29.15,6.2,SW,26.5,39.1,N/A,Rain,Light Rain Showers,230,2013-01-27 10:00:00
10:30 AM,39.2,33.8,81,29.15,6.2,SW,25.3,38.0,N/A,,Scattered Clouds,230,2013-01-27 10:30:00
11:00 AM,39.2,33.8,81,29.18,6.2,SW,25.3,-,N/A,,Partly Cloudy,230,2013-01-27 11:00:00
11:30 AM,41.0,33.8,76,29.15,6.2,SW,31.1,42.6,N/A,,Partly Cloudy,230,2013-01-27 11:30:00
12:00 PM,41,34,66,29.17,19,SW,29.1,,,Rain,Light Rain Showers,230,2013-01-27 12:00:00
12:30 PM,42.8,33.8,70,29.15,6.2,WSW,33.4,44.9,N/A,,Partly Cloudy,240,2013-01-27 12:30:00
1:00 PM,42.8,33.8,70,29.15,6.2,WSW,36.8,48.3,N/A,,Partly Cloudy,240,2013-01-27 13:00:00
1:30 PM,41.0,35.6,81,29.15,5.6,WSW,33.4,47.2,N/A,Rain,Light Rain Showers,240,2013-01-27 13:30:00
2:00 PM,37.4,33.8,87,29.21,6.2,WSW,36.8,51.8,N/A,Rain,Light Rain Showers,240,2013-01-27 14:00:00
2:30 PM,37.4,33.8,87,29.21,6.2,WSW,28.8,40.3,N/A,Rain,Light Rain Showers,240,2013-01-27 14:30:00
3:00 PM,39.2,33.8,81,29.21,6.2,WSW,31.1,43.7,N/A,Rain,Light Rain Showers,240,2013-01-27 15:00:00
3:30 PM,39.2,33.8,81,29.21,6.2,WSW,26.5,-,N/A,,Scattered Clouds,240,2013-01-27 15:30:00
4:00 PM,39.2,33.8,81,29.24,6.2,SW,25.3,-,N/A,,Scattered Clouds,230,2013-01-27 16:00:00
4:30 PM,39.2,33.8,81,29.24,5.0,WSW,26.5,-,N/A,Rain,Light Rain Showers,240,2013-01-27 16:30:00
5:00 PM,37.4,33.8,87,29.27,6.2,WSW,21.9,-,N/A,,Mostly Cloudy,240,2013-01-27 17:00:00
5:30 PM,37.4,33.8,87,29.30,6.2,WSW,20.7,-,N/A,,Partly Cloudy,240,2013-01-27 17:30:00
6:00 PM,37,35,87,29.32,6,WSW,15.7,,,Rain,Light Rain Showers,250,2013-01-27 18:00:00
6:00 PM,37.4,33.8,87,29.30,5.6,WSW,15.0,-,N/A,Rain,Light Rain Showers,250,2013-01-27 18:00:00
6:30 PM,35.6,33.8,93,29.33,6.2,SW,15.0,-,N/A,,Scattered Clouds,230,2013-01-27 18:30:00
7:00 PM,35.6,33.8,93,29.33,6.2,WSW,16.1,-,N/A,,Partly Cloudy,240,2013-01-27 19:00:00
7:30 PM,37.4,33.8,87,29.36,5.6,WSW,16.1,-,N/A,Rain,Light Rain Showers,240,2013-01-27 19:30:00
8:00 PM,37.4,33.8,87,29.36,6.2,SW,17.3,-,N/A,,Mostly Cloudy,230,2013-01-27 20:00:00
8:30 PM,37.4,32.0,81,29.36,6.2,SW,18.4,-,N/A,,Scattered Clouds,220,2013-01-27 20:30:00
9:00 PM,37.4,33.8,87,29.36,6.2,SW,18.4,-,N/A,,Scattered Clouds,220,2013-01-27 21:00:00
9:30 PM,37.4,32.0,81,29.36,6.2,SW,20.7,-,N/A,,Scattered Clouds,220,2013-01-27 21:30:00
10:00 PM,37.4,32.0,81,29.39,6.2,SW,20.7,-,N/A,,Scattered Clouds,230,2013-01-27 22:00:00
10:30 PM,37.4,32.0,81,29.39,6.2,SW,25.3,-,N/A,,Scattered Clouds,230,2013-01-27 22:30:00
11:00 PM,37.4,32.0,81,29.39,6.2,SW,26.5,38.0,N/A,,Partly Cloudy,230,2013-01-27 23:00:00
11:30 PM,35.6,32.0,87,29.42,6.2,SW,25.3,38.0,N/A,,Partly Cloudy,230,2013-01-27 23:30:00